Home   Weather   Montréal   Past weeks
Flag for Canada

Past Weather in Montréal, Quebec, Canada — Yesterday and Last 2 Weeks

Now
14 °F

Partly sunny.


Feels Like: 0 °F
Forecast: N/A
Wind: 12 mph from West

Location: Montreal - Pierre Elliot Trudeau International Aiport

Current Time: Jan 18, 2019 at 5:29:41 pm

Latest Report: Jan 18, 2019 at 4:20 pm


Visibility: 15 mi

Pressure: 30.02 "Hg

Humidity: 85%

Dew Point: 10 °F

Location of MontréalLocation

Past Weather in Montréal — Graph

°F

Montréal Temperature Yesterday

Maximum temperature yesterday: 9 °F (at 9:00 pm)
Minimum temperature yesterday: -4 °F (at 5:00 am)
Average temperature yesterday: 2 °F

High & Low Weather Summary for the Past Weeks

 TemperatureHumidityPressure
High36 °F (Jan 4, 8:31 am)100% (Jan 4, 4:34 am)30.63 "Hg (Jan 4, 4:34 am)
Low-4 °F (Jan 17, 5:00 am)40% (Jan 7, 1:00 pm)29.41 "Hg (Jan 9, 1:00 pm)
Average19 °F76%30.02 "Hg
* Reported Jan 3 3:00 pm — Jan 18 3:00 pm, Montréal. Weather by CustomWeather, © 2019

Note: Actual official high and low records may vary slightly from our data, if they occured in-between our weather recording intervals... More about our weather records

Advertising

Montréal Weather History for the Previous 24 Hours

Scroll right to see more
 ConditionsComfort  
Time TempWeatherWind HumidityBarometerVisibility
3:00 pm
Fri, Jan 18
14 °FLight snow. Overcast.8 mph79%29.97 "Hg8 mi
2:00 pm12 °FLight snow. More clouds than sun.9 mph85%29.96 "Hg4 mi
1:00 pm12 °FLight snow. Mostly cloudy.3 mph79%29.94 "Hg2 mi
12:40 pm10 °FLight snow. Overcast.5 mph85%29.95 "Hg1 mi
12:00 pm10 °FLight snow. Mostly cloudy.3 mph85%29.98 "Hg2 mi
11:35 am10 °FLight snow. Overcast.6 mph79%29.99 "Hg2 mi
11:00 am9 °FLight snow. Mostly cloudy.5 mph78%30.01 "Hg3 mi
10:00 am7 °FLight snow. Mostly cloudy.8 mph78%30.03 "Hg2 mi
9:00 am5 °FLight snow. Mostly cloudy.10 mph78%30.05 "Hg2 mi
8:15 am5 °FLight snow. Mostly cloudy.9 mph78%30.06 "Hg3 mi
8:05 am5 °FLight snow. Low clouds.10 mph78%30.05 "Hg2 mi
7:00 am3 °FLight snow. Mostly cloudy.10 mph85%30.07 "Hg15 mi
6:10 am3 °FLight snow. Mostly cloudy.12 mph78%30.07 "Hg15 mi
5:00 am3 °FMostly cloudy.13 mph78%30.07 "Hg15 mi
4:00 am5 °FMostly cloudy.13 mph72%30.09 "Hg15 mi
3:00 am3 °FMostly cloudy.14 mph78%30.11 "Hg15 mi
2:00 am3 °FMostly cloudy.13 mph72%30.14 "Hg15 mi
1:00 am5 °FMostly cloudy.12 mph72%30.16 "Hg15 mi
12:00 am7 °FMostly cloudy.12 mph66%30.19 "Hg15 mi
11:00 pm
Thu, Jan 17
7 °FMostly cloudy.12 mph61%30.22 "Hg15 mi
10:00 pm9 °FPassing clouds.9 mph56%30.25 "Hg15 mi
9:00 pm9 °FMostly cloudy.6 mph66%30.28 "Hg15 mi
8:00 pm5 °FMostly cloudy.6 mph66%30.31 "Hg15 mi
7:00 pm5 °FPartly cloudy.3 mph66%30.34 "Hg15 mi
6:00 pm5 °FPassing clouds.6 mph60%30.35 "Hg15 mi
5:00 pm5 °FPassing clouds.2 mph46%30.36 "Hg15 mi
Weather by CustomWeather, © 2019

See weather overview